シュヴァスマン-ヴァハマン第2彗星

31P/Schwassmann-Wachmann 2 (2010)

English version
Home page
Total 6,336 html files since Dec. 4, 1995
Updated on August 10, 2007

---------------------------------------------------------------------

・ プロフィール

・ 軌道要素

The following orbital elements are taken from MPC 59600:

Epoch 2010 Oct. 11.0 TT = JDT 2455480.5
T 2010 Sept. 29.4910 TT                                 MPC
q   3.424323             (2000.0)            P               Q
n   0.1128003      Peri.   17.9324      -0.6698341      -0.7389812
a   4.242245       Node   114.1901      +0.6711633      -0.6442470
e   0.192804       Incl.    4.5468      +0.3175878      -0.1971104
P   8.74
From 535 observations 1979-2003, mean residual 0".9.  Nongravitational
     parameters A1 = +1.04, A2 = -0.2724.

・ 星図

・ 光度変化

        m1 = 4.5 + 5 logΔ + 20.0 log r

---------------------------------------------------------------------

軌道要素はMPCのEphemerides and Orbital Elementsに掲載されたものです。
星図は StellaNavigator Ver.2.0 for Windows (アストロアーツ 編著 / アスキー出版局刊) で作成したものです。
光度グラフはComet for Windowsで作成したものです。

---------------------------------------------------------------------

Copyright(C) 1995-2008 Seiichi Yoshida (comet@aerith.net). All rights reserved.